Regional Weather Roundup
Issued by NWS

Home | Current Version | Previous Version | Graphics & Text | Print | Product List | Glossary On
Versions: 1 2 3 4 5 6 7 8 9 10 11 12 13 14 15 16 17 18 19 20 21 22 23 24 25 26 27 28 29 30 31 32 33 34 35 36 37 38 39 40 41 42 43 44 45 46 47 48 49 50
000
ASUS43 KDTX 240410
RWRMI
MICHIGAN HOURLY REGIONAL WEATHER ROUNDUP
NATIONAL WEATHER SERVICE DETROIT/PONTIAC MI
1200 AM EDT SUN JUL 24 2016

NOTE: "FAIR" INDICATES FEW OR NO CLOUDS BELOW 12,000 FEET WITH NO
SIGNIFICANT WEATHER AND/OR OBSTRUCTION TO VISIBILITY.

MIZ047>049-052>055-059>063-066>070-074>076-081>083-240500-
SOUTHEAST LOWER MICHIGAN

CITY           SKY/WX    TMP DP  RH WIND       PRES   REMARKS
ADRIAN         CLOUDY    77  71  82 CALM      29.99S
ALMA           CLOUDY    76  67  74 CALM      29.96F
ANN ARBOR      CLOUDY    78  63  59 E5        29.99S
BAD AXE        PTCLDY    70  58  66 CALM      29.99F
CARO           CLOUDY    70  59  68 SE3       29.98S
DETROIT CITY   CLOUDY    76  64  66 E5        29.99S
DETROIT        PTCLDY    81  61  50 E6        29.99F
FLINT          CLOUDY    78  61  55 S6        29.98F
GROSSE ILE     MOCLDY    78  64  61 E3        29.98S
HOWELL         MOCLDY    78  61  55 SE8       29.99S

CITY           SKY/WX    TMP DP  RH WIND       PRES   REMARKS
JACKSON        CLOUDY    76  71  85 CALM      29.98F
LAMBERTVILLE   CLOUDY    76  70  82 NE3       29.99S
LANSING        CLOUDY    80  61  52 SE6       29.98S
LAPEER         FAIR      71  59  64 S5        30.00S
MASON          CLOUDY    76  66  71 SE5       29.98F
MONROE         CLOUDY    76  68  77 S5        29.98F
MT. CLEMENS    CLEAR     73  65  75 E5        29.98S
PONTIAC        CLOUDY    77  59  53 SE5       29.99F
PORT HOPE        N/A     72  61  68 S6        29.97F
PORT HURON     PTCLDY    63  61  94 CALM      30.00F
TRI CITIES     CLOUDY    73  67  81 SE7       29.97S
MIDLAND        FAIR      73  67  80 CALM      29.96S
TROY           PTCLDY    81  57  44 E5        30.01F
SAGINAW HB     CLOUDY    73  63  68 SE6       29.97R
$$
MIZ043>046-050>051-056>058-064>065-071>073-077>080-240500-
SOUTHWEST LOWER MICHIGAN

CITY           SKY/WX    TMP DP  RH WIND       PRES   REMARKS
BATTLE CREEK   CLOUDY    78  66  66 CALM      29.97F
BENTON HARBOR  CLOUDY    76  73  91 NW8       29.96R
BIG RAPIDS     MOCLDY    72  71  98 CALM      29.96S
COLDWATER      MOCLDY    75  73  93 SE6       29.96F
FREMONT        DRIZZLE   76  76 100 CALM      29.95F
HOLLAND        CLOUDY    75  71  87 CALM      29.96R
GRAND RAPIDS   CLOUDY    79  71  76 S5        29.95F
IONIA          FAIR      75  66  73 SE3       29.95F
KALAMAZOO      LGT RAIN  77  70  79 SE3       29.94F
LUDINGTON      DRIZZLE   75  71  88 SE5       29.91F
MARSHALL       CLOUDY    78  69  75 CALM      29.97F
MOUNT PLEASANT CLOUDY    77  64  64 CALM      29.96S
MUSKEGON         N/A     78  73  84 CALM      29.94F
SOUTH HAVEN    CLOUDY    75  73  93 W14       29.98R
$$
MIZ016>042-240500-
NORTHERN LOWER MICHIGAN

CITY           SKY/WX    TMP DP  RH WIND       PRES   REMARKS
ALPENA         CLOUDY    67  60  78 S5        29.97F
BEAVER ISLAND    N/A     68  64  88 E3        29.93S
BELLAIRE       CLOUDY    68  66  94 CALM      29.94S
CADILLAC       CLOUDY    68  64  89 CALM      29.97F
CHARLEVOIX     CLOUDY    74  63  68 SE5       29.95F
FRANKFORT      CLOUDY    71  64  77 CALM      29.91F
GAYLORD        PTCLDY    73  59  61 S7        29.99S
GRAYLING       CLOUDY    72  60  66 SE5       29.99S
HARBOR SPRINGS CLOUDY    74  61  63 E3        29.94S
HOUGHTON LAKE  MOCLDY    71  57  61 SE5       29.99S
MANISTEE       CLOUDY    72  66  81 E3        29.91F
OSCODA         MOCLDY    72  62  71 S6        29.97F
PELLSTON       CLOUDY    67  64  90 CALM      29.95S
ROGERS CITY    CLOUDY    74  57  54 S8        29.97S
TRAVERSE CITY  CLOUDY    72  64  76 CALM      29.91F
$$
MIZ007>008-015-240500-
EASTERN UPPER MICHIGAN

CITY           SKY/WX    TMP DP  RH WIND       PRES   REMARKS
KINROSS        CLOUDY    71  63  75 S6        29.96S
MACKINAC ISLAN CLOUDY    75  60  57 S6        29.95R
NEWBERRY       CLOUDY    68  65  89 SE3       29.93F
S. S. MARIE    MOCLDY    72  64  76 E3        29.93F
MUNISING         N/A     73  62  68 SW6       29.88F
$$
MIZ004>006-011>014-085-240500-
CENTRAL UPPER MICHIGAN

CITY           SKY/WX    TMP DP  RH WIND       PRES   REMARKS
MANISTIQUE     CLOUDY    70  64  83 E6        29.90F
ESCANABA       CLOUDY    73  66  78 CALM      29.88S
MENOMINEE      RAIN      72  70  94 CALM      29.91S
SAWYER-GWINN   CLOUDY    72  59  64 S6        29.91F
$$
MIZ001>003-009>011-084-240500-
WESTERN UPPER MICHIGAN

CITY           SKY/WX    TMP DP  RH WIND       PRES   REMARKS
IRON MOUNTAIN  LGT RAIN  71  64  78 SE7       29.89S
HOUGHTON       CLOUDY    65  58  78 NE10      29.86F
COPPER HARBOR    N/A     71  60  68 SW10G17   29.85F
IRONWOOD       CLOUDY    73  68  83 S6        29.82F
$$

ABBREVIATIONS USED IN REMARKS
   TC - TEMPERATURE IN CELSIUS
  WCI - WIND CHILL INDEX
   HX - HEAT INDEX
  VSB - VISIBILITY





USA.gov is the U.S. government's official web portal to all federal, state and local government web resources and services.